AUA26B EDDS-LOWW

Flight info

Callsign AUA26B
Flight time 0h 55m
Altitude 31000
Route ABTAL4H/07 ABTAL L173 RIXED Y161 RIDAR Z98 MIQ L605 BIBAG Q104 AKIMA DCT MASUR MASUR3W
Aircraft A320/M-SDE3FGHIRWY/LB1

Departure

Time 2026-04-23 18:51
Airport Stuttgart Airport (EDDS)

Arrival

Time 2026-04-23 19:46
Airport Vienna International Airport (LOWW)
Time Latitude Longitude Altitude Speed Heading
2026-04-23 18:07 48.68897 9.19428 1316 ft 0 kts 344°
2026-04-23 18:42 48.68874 9.19438 1315 ft 4 kts 344°
2026-04-23 18:42 48.68852 9.19447 1314 ft 3 kts 345°
2026-04-23 18:42 48.68829 9.19449 1313 ft 4 kts 32°
2026-04-23 18:42 48.68814 9.19422 1313 ft 3 kts 73°
2026-04-23 18:43 48.68813 9.19418 1313 ft 0 kts 74°
2026-04-23 18:47 48.68816 9.19432 1313 ft 6 kts 74°
2026-04-23 18:47 48.68832 9.19516 1311 ft 9 kts 73°
2026-04-23 18:48 48.68851 9.19611 1309 ft 10 kts 73°
2026-04-23 18:48 48.68870 9.19710 1307 ft 10 kts 74°
2026-04-23 18:48 48.68888 9.19824 1304 ft 12 kts 88°
2026-04-23 18:48 48.68824 9.19907 1298 ft 15 kts 149°
2026-04-23 18:49 48.68740 9.19962 1292 ft 12 kts 163°
2026-04-23 18:49 48.68688 9.19985 1289 ft 0 kts 163°
2026-04-23 18:49 48.68686 9.19986 1289 ft 2 kts 163°
2026-04-23 18:49 48.68626 9.20023 1288 ft 15 kts 147°
2026-04-23 18:50 48.68595 9.20125 1282 ft 19 kts 85°
2026-04-23 18:50 48.68703 9.20696 1276 ft 84 kts 74°
2026-04-23 18:50 48.68930 9.21906 1245 ft 148 kts 74°
2026-04-23 18:50 48.69226 9.23498 1669 ft 156 kts 74°
2026-04-23 18:51 48.69505 9.25133 2265 ft 160 kts 72°
2026-04-23 18:51 48.69832 9.26759 2842 ft 166 kts 70°
2026-04-23 18:51 48.70207 9.28490 3274 ft 181 kts 69°
2026-04-23 18:51 48.70617 9.30368 3729 ft 194 kts 69°
2026-04-23 18:52 48.71040 9.32431 4040 ft 218 kts 71°
2026-04-23 18:52 48.71478 9.34770 4408 ft 242 kts 72°
2026-04-23 18:52 48.71943 9.37352 4919 ft 263 kts 73°
2026-04-23 18:52 48.72431 9.40067 5722 ft 270 kts 73°
2026-04-23 18:53 48.72933 9.42840 6605 ft 275 kts 73°
2026-04-23 18:53 48.73447 9.45654 7485 ft 279 kts 72°
2026-04-23 18:53 48.73967 9.48471 8346 ft 283 kts 72°
2026-04-23 18:53 48.74507 9.51367 9188 ft 287 kts 72°
2026-04-23 18:54 48.75057 9.54295 10034 ft 291 kts 72°
2026-04-23 18:54 48.75618 9.57282 10686 ft 303 kts 71°
2026-04-23 18:54 48.76220 9.60472 10960 ft 327 kts 71°
2026-04-23 18:54 48.76864 9.63894 11293 ft 345 kts 71°
2026-04-23 18:55 48.77086 9.65080 11504 ft 348 kts 72°
2026-04-23 18:55 48.78927 9.75034 13582 ft 357 kts 71°
2026-04-23 18:55 48.79594 9.78656 14283 ft 359 kts 72°
2026-04-23 18:56 48.80041 9.81079 14748 ft 361 kts 72°
2026-04-23 18:56 48.80947 9.86005 15684 ft 364 kts 71°
2026-04-23 18:56 48.81641 9.89765 16349 ft 367 kts 71°
2026-04-23 18:56 48.82140 9.93529 16985 ft 373 kts 84°
2026-04-23 18:57 48.81930 9.97504 17621 ft 380 kts 95°
2026-04-23 18:57 48.81518 10.01484 18256 ft 383 kts 96°
2026-04-23 18:57 48.81088 10.05484 18877 ft 386 kts 95°
2026-04-23 18:57 48.80649 10.09511 19497 ft 388 kts 95°
2026-04-23 18:58 48.80206 10.13564 20092 ft 390 kts 95°
2026-04-23 18:58 48.79767 10.17585 20685 ft 392 kts 95°
2026-04-23 18:58 48.79321 10.21682 21247 ft 394 kts 95°
2026-04-23 18:58 48.78872 10.25796 21783 ft 396 kts 95°
2026-04-23 18:59 48.78420 10.29932 22302 ft 399 kts 95°
2026-04-23 18:59 48.77965 10.34094 22807 ft 400 kts 95°
2026-04-23 18:59 48.77508 10.38277 23286 ft 402 kts 95°
2026-04-23 18:59 48.77048 10.42466 23757 ft 404 kts 95°
2026-04-23 19:00 48.76741 10.45257 24047 ft 406 kts 95°
2026-04-23 19:00 48.76272 10.49489 24504 ft 407 kts 95°
2026-04-23 19:00 48.75800 10.53724 24918 ft 409 kts 95°
2026-04-23 19:00 48.75321 10.57988 25313 ft 411 kts 95°
2026-04-23 19:01 48.74842 10.62255 25721 ft 412 kts 95°
2026-04-23 19:01 48.74360 10.66547 26100 ft 413 kts 95°
2026-04-23 19:01 48.73876 10.70848 26475 ft 415 kts 96°
2026-04-23 19:01 48.73387 10.75164 26827 ft 417 kts 96°
2026-04-23 19:02 48.72895 10.79507 27156 ft 419 kts 96°
2026-04-23 19:02 48.72400 10.83860 27512 ft 420 kts 96°
2026-04-23 19:02 48.71909 10.88173 27845 ft 421 kts 96°
2026-04-23 19:02 48.71400 10.92609 28153 ft 423 kts 96°
2026-04-23 19:03 48.70897 10.96940 28445 ft 424 kts 96°
2026-04-23 19:03 48.70383 11.01349 28739 ft 425 kts 96°
2026-04-23 19:03 48.69871 11.05755 29022 ft 426 kts 96°
2026-04-23 19:03 48.69354 11.10184 29298 ft 427 kts 96°
2026-04-23 19:04 48.68835 11.14607 29547 ft 428 kts 96°
2026-04-23 19:04 48.68313 11.19047 29791 ft 428 kts 96°
2026-04-23 19:04 48.67789 11.23490 30112 ft 427 kts 96°
2026-04-23 19:04 48.67269 11.27899 30431 ft 425 kts 96°
2026-04-23 19:05 48.66751 11.32292 30728 ft 424 kts 96°
2026-04-23 19:05 48.66232 11.36688 31037 ft 423 kts 96°
2026-04-23 19:05 48.65710 11.41066 31215 ft 422 kts 96°
2026-04-23 19:06 48.64666 11.49736 31247 ft 416 kts 96°
2026-04-23 19:06 48.63628 11.58336 31248 ft 415 kts 96°
2026-04-23 19:07 48.62592 11.66852 31247 ft 414 kts 96°
2026-04-23 19:07 48.61543 11.75406 31248 ft 414 kts 96°
2026-04-23 19:08 48.60490 11.83958 31249 ft 414 kts 96°
2026-04-23 19:08 48.59433 11.92506 31250 ft 413 kts 96°
2026-04-23 19:09 48.58368 12.01059 31251 ft 414 kts 96°
2026-04-23 19:09 48.57296 12.09598 31251 ft 413 kts 96°
2026-04-23 19:10 48.56226 12.18065 31248 ft 413 kts 96°
2026-04-23 19:10 48.55145 12.26585 31244 ft 413 kts 96°
2026-04-23 19:11 48.54058 12.35096 31243 ft 413 kts 96°
2026-04-23 19:11 48.52963 12.43615 31239 ft 414 kts 96°
2026-04-23 19:12 48.52043 12.50702 31237 ft 414 kts 96°
2026-04-23 19:12 48.50741 12.60674 31231 ft 414 kts 96°
2026-04-23 19:13 48.49626 12.69203 31226 ft 414 kts 96°
2026-04-23 19:13 48.48504 12.77731 31221 ft 415 kts 96°
2026-04-23 19:14 48.47375 12.86270 31220 ft 416 kts 96°
2026-04-23 19:14 48.46242 12.94766 31221 ft 416 kts 96°
2026-04-23 19:15 48.45093 13.03311 31221 ft 416 kts 96°
2026-04-23 19:15 48.43932 13.11854 31216 ft 417 kts 96°
2026-04-23 19:16 48.42766 13.20411 31212 ft 417 kts 96°
2026-04-23 19:16 48.41639 13.28976 31211 ft 415 kts 92°
2026-04-23 19:17 48.41707 13.37539 31210 ft 408 kts 81°
2026-04-23 19:17 48.41966 13.41792 31209 ft 408 kts 81°
2026-04-23 19:17 48.42459 13.50306 31207 ft 408 kts 81°
2026-04-23 19:18 48.42942 13.58808 31205 ft 408 kts 82°
2026-04-23 19:18 48.43424 13.67318 31199 ft 408 kts 82°
2026-04-23 19:19 48.44138 13.80073 31198 ft 407 kts 82°
2026-04-23 19:20 48.44836 13.92852 31197 ft 408 kts 82°
2026-04-23 19:20 48.45292 14.01355 31193 ft 407 kts 82°
2026-04-23 19:21 48.45967 14.14113 31188 ft 407 kts 82°
2026-04-23 19:22 48.46405 14.22573 31039 ft 409 kts 82°
2026-04-23 19:22 48.46624 14.26839 30662 ft 409 kts 82°
2026-04-23 19:22 48.47060 14.35414 29910 ft 412 kts 82°
2026-04-23 19:23 48.47277 14.39724 29535 ft 413 kts 82°
2026-04-23 19:23 48.47494 14.44046 29162 ft 415 kts 82°
2026-04-23 19:23 48.47710 14.48390 28774 ft 417 kts 82°
2026-04-23 19:24 48.48139 14.57145 28032 ft 420 kts 82°
2026-04-23 19:24 48.48351 14.61541 27661 ft 422 kts 82°
2026-04-23 19:24 48.48765 14.70299 26911 ft 420 kts 82°
2026-04-23 19:25 48.49175 14.79055 25856 ft 414 kts 82°
2026-04-23 19:25 48.49565 14.87625 24383 ft 406 kts 82°
2026-04-23 19:26 48.49949 14.96051 22934 ft 400 kts 82°
2026-04-23 19:26 48.50136 15.00222 22236 ft 398 kts 82°
2026-04-23 19:27 48.50503 15.08505 20869 ft 394 kts 82°
2026-04-23 19:27 48.51042 15.20824 18905 ft 390 kts 82°
2026-04-23 19:28 48.51390 15.28961 17679 ft 387 kts 82°
2026-04-23 19:28 48.51728 15.37055 16951 ft 387 kts 82°
2026-04-23 19:29 48.51895 15.41104 16648 ft 386 kts 82°
2026-04-23 19:29 48.51720 15.49222 16045 ft 388 kts 91°
2026-04-23 19:30 48.51265 15.57250 15447 ft 386 kts 91°
2026-04-23 19:30 48.51034 15.61270 15147 ft 384 kts 91°
2026-04-23 19:30 48.50577 15.69285 14545 ft 383 kts 91°
2026-04-23 19:31 48.50349 15.73285 14242 ft 382 kts 91°
2026-04-23 19:31 48.50119 15.77270 13943 ft 380 kts 91°
2026-04-23 19:31 48.49888 15.81234 13643 ft 379 kts 91°
2026-04-23 19:31 48.49656 15.85184 13342 ft 378 kts 91°
2026-04-23 19:32 48.49420 15.89123 13037 ft 377 kts 91°
2026-04-23 19:32 48.49183 15.93058 12739 ft 375 kts 91°
2026-04-23 19:32 48.48946 15.96971 12438 ft 374 kts 91°
2026-04-23 19:32 48.48708 16.00864 12136 ft 373 kts 91°
2026-04-23 19:33 48.48467 16.04766 11834 ft 372 kts 92°
2026-04-23 19:33 48.47956 16.08609 11553 ft 377 kts 103°
2026-04-23 19:33 48.45537 16.15660 11058 ft 383 kts 122°
2026-04-23 19:34 48.44022 16.18962 10801 ft 383 kts 121°
2026-04-23 19:34 48.42532 16.22220 10549 ft 382 kts 121°
2026-04-23 19:34 48.39502 16.28843 10043 ft 381 kts 121°
2026-04-23 19:35 48.38040 16.32030 9785 ft 366 kts 122°
2026-04-23 19:35 48.36641 16.35069 9535 ft 340 kts 121°
2026-04-23 19:35 48.35334 16.37907 9289 ft 323 kts 121°
2026-04-23 19:35 48.34070 16.40655 9038 ft 316 kts 121°
2026-04-23 19:36 48.32823 16.43364 8780 ft 313 kts 121°
2026-04-23 19:36 48.31595 16.46037 8528 ft 311 kts 121°
2026-04-23 19:36 48.30353 16.48685 8278 ft 310 kts 125°
2026-04-23 19:36 48.28890 16.51079 8026 ft 311 kts 135°
2026-04-23 19:37 48.27196 16.53110 7777 ft 311 kts 142°
2026-04-23 19:37 48.25463 16.55053 7516 ft 310 kts 141°
2026-04-23 19:37 48.23733 16.56997 7279 ft 310 kts 141°
2026-04-23 19:37 48.22015 16.58935 7027 ft 309 kts 141°
2026-04-23 19:38 48.20321 16.60854 6710 ft 308 kts 141°
2026-04-23 19:38 48.18756 16.63005 6309 ft 303 kts 127°
2026-04-23 19:38 48.17555 16.65594 5908 ft 296 kts 113°
2026-04-23 19:38 48.16622 16.68334 5505 ft 295 kts 112°
2026-04-23 19:39 48.15684 16.71058 5101 ft 294 kts 116°
2026-04-23 19:39 48.14702 16.73683 4704 ft 291 kts 114°
2026-04-23 19:39 48.13751 16.76351 4300 ft 289 kts 114°
2026-04-23 19:39 48.12816 16.79002 3893 ft 286 kts 114°
2026-04-23 19:40 48.11894 16.81630 3501 ft 283 kts 114°
2026-04-23 19:40 48.10939 16.84202 3107 ft 282 kts 123°
2026-04-23 19:40 48.09468 16.86004 3012 ft 268 kts 156°
2026-04-23 19:40 48.07714 16.86539 3025 ft 249 kts 186°
2026-04-23 19:41 48.06104 16.85949 3023 ft 232 kts 212°
2026-04-23 19:41 48.04854 16.84554 3023 ft 219 kts 236°
2026-04-23 19:41 48.04277 16.83320 3028 ft 211 kts 251°
2026-04-23 19:41 48.03815 16.80612 3028 ft 198 kts 277°
2026-04-23 19:42 48.03906 16.79280 3025 ft 193 kts 289°
2026-04-23 19:42 48.04386 16.77450 3026 ft 187 kts 301°
2026-04-23 19:42 48.04936 16.75771 3026 ft 172 kts 302°
2026-04-23 19:42 48.05449 16.74211 2948 ft 164 kts 303°
2026-04-23 19:43 48.05948 16.72697 2780 ft 161 kts 302°
2026-04-23 19:43 48.06443 16.71193 2581 ft 161 kts 301°
2026-04-23 19:43 48.06935 16.69691 2413 ft 161 kts 300°
2026-04-23 19:43 48.07427 16.68192 2192 ft 157 kts 300°
2026-04-23 19:44 48.07879 16.66809 1971 ft 141 kts 299°
2026-04-23 19:44 48.08301 16.65523 1785 ft 135 kts 298°
2026-04-23 19:44 48.08710 16.64274 1613 ft 132 kts 298°
2026-04-23 19:44 48.09113 16.63044 1439 ft 131 kts 298°
2026-04-23 19:45 48.09514 16.61819 1276 ft 131 kts 298°
2026-04-23 19:45 48.09908 16.60613 1091 ft 130 kts 298°
2026-04-23 19:45 48.10306 16.59395 923 ft 130 kts 298°
2026-04-23 19:45 48.10708 16.58170 745 ft 131 kts 298°
2026-04-23 19:46 48.11107 16.56957 613 ft 124 kts 297°
2026-04-23 19:46 48.11410 16.56024 612 ft 75 kts 296°
2026-04-23 19:46 48.11564 16.55549 609 ft 31 kts 296°
2026-04-23 19:46 48.11691 16.55294 616 ft 30 kts 316°
2026-04-23 19:47 48.11824 16.55149 609 ft 20 kts 353°
2026-04-23 19:47 48.11873 16.55229 618 ft 11 kts 105°
2026-04-23 19:47 48.11841 16.55332 609 ft 13 kts 116°
2026-04-23 19:47 48.11801 16.55454 617 ft 13 kts 116°
2026-04-23 19:48 48.11763 16.55569 621 ft 12 kts 116°
2026-04-23 19:48 48.11730 16.55670 617 ft 10 kts 116°
2026-04-23 19:48 48.11701 16.55761 616 ft 9 kts 116°
2026-04-23 19:48 48.11675 16.55841 609 ft 8 kts 116°
2026-04-23 19:49 48.11652 16.55914 613 ft 7 kts 115°
2026-04-23 19:49 48.11631 16.55978 609 ft 6 kts 116°
2026-04-23 19:49 48.11599 16.56074 613 ft 12 kts 116°
2026-04-23 19:49 48.11602 16.56179 621 ft 10 kts 48°
2026-04-23 19:50 48.11655 16.56241 612 ft 9 kts 28°
2026-04-23 19:50 48.11707 16.56280 609 ft 8 kts 27°
2026-04-23 19:50 48.11757 16.56335 617 ft 13 kts 66°
2026-04-23 19:50 48.11729 16.56456 617 ft 12 kts 116°
2026-04-23 19:51 48.11697 16.56562 612 ft 11 kts 115°
2026-04-23 19:51 48.11665 16.56653 614 ft 9 kts 115°
2026-04-23 19:51 48.11652 16.56744 609 ft 8 kts 52°
2026-04-23 19:51 48.11687 16.56775 618 ft 3 kts 24°
2026-04-23 19:52 48.11702 16.56786 617 ft 2 kts 25°
2026-04-23 19:52 48.11709 16.56790 618 ft 0 kts 25°